Flag for El Salvador Weather past 2 weeks in San Salvador, El Salvador

Now
77 °F

Sunny.


Feels Like: 79 °F
Forecast: 61 / 85 °F
Wind: 12 mph from North

Location: San Salvador / Ilopango

Current Time: Jan 29, 2015 at 6:41:46 PM

Latest Report: Jan 29, 2015 at 5:50 PM


Visibility: 10 mi

Pressure: 29.95 "Hg

Humidity: 57%

Dew point: 61 °F

Location of San SalvadorLocation

Historic Weather in San Salvador — Graph

°F

San Salvador temperature yesterday

Maximum temperature yesterday: 86 °F (at 1:50 PM)
Minimum temperature yesterday: 61 °F (at 6:50 AM)
Average temperature yesterday: 74 °F

Past Weeks' High & Low Weather Summary

 TemperatureHumidityPressure
High91 °F (Jan 15, 2:50 PM)100% (Jan 27, 8:50 PM)30.18 "Hg (Jan 27, 8:50 PM)
Low61 °F (Jan 28, 6:50 AM)40% (Jan 28, 1:50 PM)29.86 "Hg (Jan 28, 9:50 AM)
Average76 °F67%30.02 "Hg
* Reported Jan 14 4:50 PM — Jan 29 4:50 PM, San Salvador, Weather by CustomWeather, © 2014

Note: Actual official high and low records may vary slightly from our data, if they occured in-between our weather recording intervals... More about our weather records

Advertising

San Salvador weather history for previous 24 hours

 ConditionsComfort  
Time TempWeatherWind HumidityBarometerVisibility
4:50 PM
Jan 29
82 °FSunny.12 mph51%29.95 "Hg10 mi
3:50 PM68 °FSunny.14 mph94%29.95 "Hg10 mi
2:50 PM86 °FPassing clouds.14 mph46%29.95 "HgN/A
1:50 PM88 °FSunny.12 mph43%29.98 "Hg10 mi
12:50 PM86 °FSunny.14 mph46%30.01 "Hg10 mi
11:50 AM84 °FSunny.16 mph48%30.01 "Hg10 mi
10:50 AM79 °FSunny.18 mph54%30.04 "Hg10 mi
9:50 AM73 °FSunny.18 mph61%30.04 "Hg10 mi
8:50 AM70 °FSunny.16 mph69%30.04 "Hg10 mi
7:50 AM64 °FSunny.18 mph78%30.01 "Hg10 mi
6:50 AM63 °FSunny.10 mph77%29.98 "Hg10 mi
5:50 AM61 °FClear.9 mph83%30.01 "Hg10 mi
11:50 PM
Jan 28
63 °FClear.8 mph77%29.98 "Hg10 mi
10:50 PM64 °FClear.14 mph73%29.89 "Hg10 mi
9:50 PM77 °FClear.16 mph83%30.01 "Hg10 mi
8:50 PM66 °FClear.10 mph73%30.01 "Hg10 mi
7:50 PM68 °FClear.14 mph69%29.95 "Hg10 mi
6:50 PM72 °FClear.14 mph61%29.95 "Hg10 mi
Weather by CustomWeather, © 2014

See weather overviewHow to use our weather pages